Location: Friedrichshafen
(47.6598°N, 9.4819°E)
Time: 04:39:51
(UTC+02:00)

Envisat - Visible Passes

Search period start: 23 October 2018 00:00
Search period end: 01 November 2018 23:00
Orbit: 764 x 766 km, 98.2° (Epoch: 22 October)

Date Brightness Start Highest point End Pass type
(mag) Time Alt. Az. Time Alt. Az. Time Alt. Az.
23 Oct 2.9 20:05:36 10° SSE 20:10:40 82° ENE 20:15:48 10° NNW visible
23 Oct 5.8 21:47:36 10° WSW 21:50:20 14° W 21:53:05 10° NW visible
24 Oct 3.4 19:29:20 10° SE 19:34:03 40° ENE 19:38:49 10° N visible
24 Oct 4.8 21:08:47 10° SSW 21:13:11 30° W 21:17:38 10° NNW visible
25 Oct 4.2 18:53:52 10° ESE 18:57:39 21° ENE 19:01:26 10° NNE visible
25 Oct 3.4 20:31:14 10° S 20:36:15 61° W 20:41:19 10° NNW visible
26 Oct 2.9 19:54:29 10° SSE 19:59:30 66° ENE 20:04:34 10° N visible
26 Oct 5.5 21:35:35 10° SW 21:39:00 18° W 21:42:28 10° NW visible
27 Oct 3.6 19:18:27 10° SE 19:22:58 33° ENE 19:27:30 10° N visible
27 Oct 4.4 20:57:16 10° SSW 21:01:56 36° W 21:06:38 10° NNW visible
28 Oct 4.4 17:43:15 10° E 17:46:36 18° ENE 17:49:57 10° NNE visible
28 Oct 3.1 19:19:58 10° S 19:25:02 76° WSW 19:30:10 10° NNW visible
28 Oct 6.0 21:04:12 10° W 21:04:57 10° W 21:05:42 10° WNW visible
29 Oct 3.1 18:43:26 10° SE 18:48:21 54° ENE 18:53:19 10° N visible
29 Oct 5.2 20:23:47 10° SW 20:27:42 22° W 20:31:39 10° NW visible
30 Oct 3.9 18:07:37 10° ESE 18:11:52 28° ENE 18:16:08 10° N visible
30 Oct 4.0 19:45:50 10° S 19:50:40 45° W 19:55:34 10° NNW visible
31 Oct 4.6 17:32:47 10° E 17:35:34 15° NE 17:38:21 10° NNE visible
31 Oct 2.9 19:08:46 10° SSE 19:13:51 88° ENE 19:18:58 10° NNW visible
31 Oct 5.8 20:51:13 10° WSW 20:53:35 13° W 20:55:59 10° WNW visible
01 Nov 3.3 18:32:26 10° SE 18:37:13 44° ENE 18:42:02 10° N visible
01 Nov 4.9 20:12:08 10° SSW 20:16:25 27° W 20:20:44 10° NW visible
